Weather reports worldwide

Advertisment
Aberdeen/Dyce, United Kingdom (3091): temperature & dewpoint: 11.10.2017 15:00:00 - 17.10.2017 15:00:00 (BST)Aberdeen/Dyce, United Kingdom (3091): temperature -20cm & temperature -100cm: 11.10.2017 15:00:00 - 17.10.2017 15:00:00 (BST)Aberdeen/Dyce, United Kingdom (3091): wind speed & gusts: 11.10.2017 15:00:00 - 17.10.2017 15:00:00 (BST)Aberdeen/Dyce, United Kingdom (3091): wind direction: 11.10.2017 15:00:00 - 17.10.2017 15:00:00 (BST)Aberdeen/Dyce, United Kingdom (3091): reduced air pressure: 11.10.2017 15:00:00 - 17.10.2017 15:00:00 (BST)Aberdeen/Dyce, United Kingdom (3091): visibility: 11.10.2017 15:00:00 - 17.10.2017 15:00:00 (BST)Aberdeen/Dyce, United Kingdom (3091): sunshine duration: 11.10.2017 15:00:00 - 17.10.2017 15:00:00 (BST)Aberdeen/Dyce, United Kingdom (3091): precipitation: 11.10.2017 15:00:00 - 17.10.2017 15:00:00 (BST)
Date & Time tt [°C] td [°C] tt -20cm [°C] tt -100cm [°C] ff [km/h] ff [kn] fx [km/h] fx [kn] dd ppp [hPa] vv [km] sd [min] rr [mm]
17.10.2017 15:00:00 12,0 10,0 - - 37 20 - - NW - 9 - -
17.10.2017 14:00:00 13,0 11,0 - - 26 14 - - WNW - 10 - -
17.10.2017 13:00:00 15,0 10,0 - - 26 14 - - WNW - 10 - -
17.10.2017 12:00:00 15,0 10,0 - - 26 14 - - W - 10 - -
17.10.2017 11:00:00 14,0 10,0 - - 21 11 - - WSW - 10 - -
17.10.2017 10:00:00 15,0 10,0 - - 16 9 - - WSW - 10 - -
17.10.2017 09:00:00 14,0 9,0 - - 24 13 - - WSW - 10 - -
17.10.2017 08:00:00 14,0 9,0 - - 22 12 - - WSW - 10 - -
17.10.2017 07:00:00 13,0 10,0 - - 35 19 - - SW - 10 - -
17.10.2017 06:00:00 12,0 10,0 - - 41 22 - - SSW - 10 - -
17.10.2017 05:00:00 12,0 10,0 - - 42 23 - - S - 10 - -
17.10.2017 04:00:00 13,0 10,0 - - 37 20 - - S - 10 - -
17.10.2017 03:00:00 13,0 11,0 - - 29 16 - - S - 10 - -
17.10.2017 02:00:00 12,0 11,0 - - 26 14 - - S - 9 - -
17.10.2017 01:00:00 12,0 10,0 - - 46 25 - - S - 10 - -
17.10.2017 00:00:00 13,0 10,0 - - 41 22 - - S - 10 - -
16.10.2017 23:00:00 13,0 10,0 - - 34 18 - - SSE - 10 - -
16.10.2017 22:00:00 14,0 10,0 - - 34 18 - - S - 10 - -
16.10.2017 21:00:00 14,0 12,0 - - 22 12 - - S - 8 - -
16.10.2017 20:00:00 13,0 13,0 - - 35 19 - - S - 3,9 - -
16.10.2017 19:00:00 13,0 12,0 - - 22 12 - - SE - 1,3 - -
16.10.2017 18:00:00 12,0 12,0 - - 28 15 - - E - 2,2 - -
16.10.2017 17:00:00 12,0 12,0 - - 22 12 - - E - 2,7 - -
16.10.2017 16:00:00 12,0 12,0 - - 22 12 - - ESE - 1,4 - -
16.10.2017 15:00:00 11,0 11,0 - - 21 11 - - E - 4,0 - -
16.10.2017 14:00:00 11,0 10,0 - - 21 11 - - ENE - 10 - -
16.10.2017 13:00:00 11,0 10,0 - - 18 10 - - E - 5 - -
16.10.2017 12:00:00 10,0 10,0 - - 13 7 - - E - 4,2 - -
16.10.2017 11:00:00 9,0 9,0 - - 5 3 - - - - 1,4 - -
16.10.2017 10:00:00 9,0 9,0 - - 2 1 - - - - 1,4 - -
16.10.2017 09:00:00 9,0 8,0 - - 5 3 - - - - 10 - -
16.10.2017 08:00:00 9,0 8,0 - - 9 5 - - N - 8 - -
16.10.2017 07:00:00 9,0 8,0 - - 5 3 - - N - 9 - -
16.10.2017 06:00:00 9,0 8,0 - - 2 1 - - NNW - 7 - -
16.10.2017 05:00:00 9,0 8,0 - - 4 2 - - W - 10 - -
16.10.2017 04:00:00 9,0 7,0 - - 4 2 - - - - 10 - -
16.10.2017 03:00:00 9,0 7,0 - - 5 3 - - W - 10 - -
16.10.2017 02:00:00 9,0 7,0 - - 2 1 - - - - 10 - -
16.10.2017 01:00:00 9,0 7,0 - - 2 1 - - S - 10 - -
16.10.2017 00:00:00 10,0 6,0 - - 4 2 - - - - 10 - -
15.10.2017 23:00:00 11,0 6,0 - - 4 2 - - - - 10 - -
15.10.2017 22:00:00 11,0 6,0 - - 13 7 - - WNW - 10 - -
15.10.2017 21:00:00 11,0 7,0 - - 9 5 - - NW - 10 - -
15.10.2017 20:00:00 12,0 7,0 - - 15 8 - - NW - 10 - -
15.10.2017 19:00:00 12,0 9,0 - - 21 11 - - NW - 10 - -
15.10.2017 18:00:00 15,0 9,0 - - 31 17 - - WNW - 10 - -
15.10.2017 17:00:00 17,0 11,0 - - 18 10 - - SW - 10 - -
15.10.2017 16:00:00 17,0 12,0 - - 26 14 - - SSW - 10 - -
15.10.2017 15:00:00 17,0 12,0 - - 39 21 - - SW - 10 - -
15.10.2017 14:00:00 16,0 12,0 - - 52 28 - - SSW - 10 - -
15.10.2017 13:00:00 16,0 12,0 - - 42 23 - - SSW - 10 - -
15.10.2017 12:00:00 16,0 11,0 - - 29 16 - - SSW - 10 - -
15.10.2017 11:00:00 15,0 11,0 - - 26 14 - - SSW - 10 - -
15.10.2017 10:00:00 15,0 11,0 - - 26 14 - - SSW - 10 - -
15.10.2017 09:00:00 15,0 10,0 - - 13 7 - - SW - 10 - -
15.10.2017 08:00:00 15,0 10,0 - - 29 16 - - SSW - 10 - -
15.10.2017 07:00:00 15,0 10,0 - - 26 14 - - S - 10 - -
15.10.2017 06:00:00 15,0 10,0 - - 21 11 - - SSW - 10 - -
15.10.2017 05:00:00 14,0 11,0 - - 29 16 - - S - 10 - -
15.10.2017 04:00:00 14,0 11,0 - - 26 14 - - SSW - 10 - -
15.10.2017 03:00:00 14,0 11,0 - - 28 15 - - S - 10 - -
15.10.2017 02:00:00 14,0 11,0 - - 24 13 - - SSW - 10 - -
15.10.2017 01:00:00 13,0 11,0 - - 16 9 - - SW - 10 - -
15.10.2017 00:00:00 12,0 10,0 - - 16 9 - - SSW - 10 - -
14.10.2017 23:00:00 11,0 9,0 - - 24 13 - - S - 10 - -
14.10.2017 22:00:00 11,0 8,0 - - 13 7 - - SSE - 10 - -
14.10.2017 21:00:00 11,0 8,0 - - 8 4 - - S - 10 - -
14.10.2017 20:00:00 11,0 8,0 - - 13 7 - - SSW - 10 - -
14.10.2017 19:00:00 12,0 8,0 - - 11 6 - - SW - 10 - -
14.10.2017 18:00:00 12,0 9,0 - - 4 2 - - - - 10 - -
14.10.2017 17:00:00 13,0 9,0 - - 4 2 - - - - 10 - -
14.10.2017 16:00:00 13,0 9,0 - - 16 9 - - SW - 10 - -
14.10.2017 15:00:00 13,0 9,0 - - 18 10 - - S - 10 - -
14.10.2017 14:00:00 13,0 9,0 - - 16 9 - - S - 10 - -
14.10.2017 13:00:00 13,0 9,0 - - 22 12 - - S - 10 - -
14.10.2017 12:00:00 12,0 8,0 - - 18 10 - - S - 10 - -
14.10.2017 11:00:00 12,0 8,0 - - 15 8 - - S - 10 - -
14.10.2017 10:00:00 11,0 8,0 - - 13 7 - - SSW - 10 - -
14.10.2017 09:00:00 10,0 8,0 - - 9 5 - - S - 10 - -
14.10.2017 08:00:00 9,0 7,0 - - 15 8 - - S - 10 - -
14.10.2017 07:00:00 8,0 7,0 - - 13 7 - - S - 10 - -
14.10.2017 06:00:00 8,0 7,0 - - 9 5 - - SSE - 10 - -
14.10.2017 05:00:00 10,0 7,0 - - 15 8 - - SSW - 10 - -
14.10.2017 04:00:00 10,0 7,0 - - 8 4 - - SW - 10 - -
14.10.2017 03:00:00 10,0 7,0 - - 11 6 - - SW - 10 - -
14.10.2017 02:00:00 10,0 6,0 - - 11 6 - - SSW - 10 - -
14.10.2017 01:00:00 11,0 7,0 - - 11 6 - - SSW - 10 - -
14.10.2017 00:00:00 11,0 7,0 - - 13 7 - - SSW - 10 - -
13.10.2017 23:00:00 12,0 9,0 - - 22 12 - - S - 10 - -
13.10.2017 22:00:00 13,0 8,0 - - 15 8 - - SSW - 10 - -
13.10.2017 21:00:00 13,0 9,0 - - 24 13 - - SSW - 10 - -
13.10.2017 20:00:00 14,0 8,0 - - 28 15 - - S - 10 - -
13.10.2017 19:00:00 14,0 8,0 - - 31 17 - - S - 10 - -
13.10.2017 18:00:00 15,0 7,0 - - 16 9 - - SW - 10 - -
13.10.2017 17:00:00 17,0 8,0 - - 26 14 - - WSW - 10 - -
13.10.2017 16:00:00 18,0 10,0 - - 21 11 - - W - 10 - -
13.10.2017 15:00:00 18,7 12,7 - - 15 8 - - WSW 1004,4 10 12 0,0
13.10.2017 14:00:00 17,5 15,4 - - 16 9 46 25 SW 1003,7 10 0 0,2
13.10.2017 13:00:00 17,7 15,4 - - 28 15 46 25 SSW 1002,8 10 0 0,0
13.10.2017 12:00:00 17,7 15,6 - - 31 17 50 27 S 1002,1 10 0 0,0
13.10.2017 11:00:00 17,7 14,8 - - 34 18 65 35 SSW 1001,9 10 0 0,0
13.10.2017 10:00:00 17,5 14,6 11,5 11,9 42 23 61 33 SSW 1001,0 10 0 0,0
13.10.2017 09:00:00 17,1 14,3 - - 44 24 68 37 SW 1001,6 10 0 0,0
13.10.2017 08:00:00 17,0 14,2 - - 35 19 63 34 SW 1001,5 10 0 0,0
13.10.2017 07:00:00 17,3 14,1 - - 44 24 65 35 SW 1001,0 10 0 0,0
13.10.2017 06:00:00 16,8 13,9 - - 29 16 65 35 S 1001,2 10 0 0,0
13.10.2017 05:00:00 16,5 13,9 - - 28 15 - - SSW 1001,8 10 0 0,0
13.10.2017 04:00:00 14,5 12,8 - - 21 11 52 28 S 1003,1 10 0 0,0
13.10.2017 03:00:00 14,0 12,4 - - 26 14 - - S 1003,7 10 0 0,0
13.10.2017 02:00:00 13,0 11,2 - - 18 10 - - SSE 1004,7 10 0 0,0
13.10.2017 01:00:00 12,6 10,5 - - 18 10 - - S 1005,5 10 - 0,0
13.10.2017 00:00:00 12,3 9,5 - - 26 14 - - SSW 1006,3 10 0 0,0
12.10.2017 23:00:00 11,8 8,3 - - 15 8 - - SSW 1007,3 10 0 0,0
12.10.2017 22:00:00 11,1 8,3 - - 21 11 - - SSW 1008,0 10 0 0,2
12.10.2017 21:00:00 11,3 7,9 - - 13 7 - - S 1008,4 10 0 0,0
12.10.2017 20:00:00 11,5 7,5 - - 21 11 - - S 1008,7 10 0 0,0
12.10.2017 19:00:00 11,4 7,2 - - 18 10 - - SSW 1009,2 10 0 0,0
12.10.2017 18:00:00 11,5 7,6 - - 16 9 - - S 1009,5 10 0 0,0
12.10.2017 17:00:00 11,6 8,2 - - 18 10 - - S 1009,6 10 0 0,0
12.10.2017 16:00:00 11,7 7,9 - - 15 8 - - S 1009,7 10 0 0,0
12.10.2017 15:00:00 11,9 7,2 - - 16 9 - - SSW 1009,9 10 0 0,0
12.10.2017 14:00:00 12,3 7,8 - - 18 10 - - S 1009,7 10 6 0,0
12.10.2017 13:00:00 10,8 7,0 - - 16 9 - - S 1009,1 10 0 0,0
12.10.2017 12:00:00 11,2 6,1 - - 13 7 - - S 1008,7 10 36 0,0
12.10.2017 11:00:00 11,0 5,5 - - 13 7 - - WSW 1008,0 10 24 0,0
12.10.2017 10:00:00 10,6 5,0 11,7 11,9 9 5 - - SSW 1007,2 10 60 0,0
12.10.2017 09:00:00 8,6 4,1 - - 15 8 - - SW 1006,2 10 48 0,0
12.10.2017 08:00:00 7,0 3,4 - - 11 6 - - SW 1005,8 10 0 0,0
12.10.2017 07:00:00 7,8 3,4 - - 11 6 - - WSW 1004,7 10 0 0,0
12.10.2017 06:00:00 7,1 3,3 - - 9 5 - - WSW 1003,8 10 0 0,0
12.10.2017 05:00:00 6,8 2,7 - - 8 4 - - SSW 1003,0 10 0 0,0
12.10.2017 04:00:00 7,7 3,2 - - 13 7 - - SW 1002,4 10 0 0,0
12.10.2017 03:00:00 7,0 3,4 - - 11 6 - - SW 1002,1 10 0 0,0
12.10.2017 02:00:00 6,8 3,0 - - 9 5 - - WSW 1001,7 10 0 0,0
12.10.2017 01:00:00 8,0 3,3 - - 13 7 - - W 1000,9 10 - 0,0
12.10.2017 00:00:00 7,6 4,0 - - 18 10 - - W 1000,1 10 0 0,0
11.10.2017 23:00:00 8,8 5,9 - - 21 11 - - WNW 999,7 10 0 0,2
11.10.2017 22:00:00 9,6 7,4 - - 22 12 48 26 WNW 998,7 9 0 0,4
11.10.2017 21:00:00 10,9 7,2 - - 11 6 - - W 997,3 10 0 0,0
11.10.2017 20:00:00 9,9 8,3 - - 4 2 - - - 996,7 10 0 0,0
11.10.2017 19:00:00 9,3 7,6 - - 2 1 - - - 995,8 10 0 0,0
11.10.2017 18:00:00 11,1 7,7 - - 2 1 - - - 994,9 10 12 0,0
11.10.2017 17:00:00 12,0 6,0 - - 11 6 - - S 994,5 10 0 1,4
11.10.2017 16:00:00 15,0 7,2 - - 5 3 - - - 994,3 10 6 0,0
11.10.2017 15:00:00 14,3 6,0 - - 9 5 - - WSW 994,0 10 0 0,0

tt = temperature
td = dewpoint
tt -20cm = temperature -20cm
tt -100cm = temperature -100cm
ff = wind speed
fx = gusts
dd = wind direction
ppp = reduced air pressure
vv = visibility
sd = sunshine duration
rr = precipitation

Next stations